Wind_Speed
6 7 7 7 8 10 11 12 14 15 16 17 17 17 15 17 13 12 14 17 18 18 18 17 11 4 3 6 4 25 22 10 5 4 4 3 3 3 5 4 3 3 1 4 7 9 14
5 6 6 6 7 8 9 11 12 14 15 16 16 16 14 16 11 9 13 18 16 17 18 21 22 14 7 8 16 23 18 11 11 6 4 3 3 2 5 3 3 2 6 6 12 11 12
4 5 6 5 6 8 9 10 11 13 15 16 15 15 13 15 9 8 11 18 21 21 13 5 6 3 18 4 18 24 21 15 6 7 4 4 3 6 2 4 3 1 3 7 9 7 5
4 5 5 6 6 7 8 10 11 12 14 15 15 15 12 12 9 8 9 10 8 6 8 8 8 11 5 17 21 26 27 17 13 10 10 10 14 7 5 4 6 5 5 4 5 10 6
3 4 4 3 4 7 8 8 10 12 13 15 13 14 12 9 8 9 13 13 13 16 11 4 7 7 4 16 22 26 20 9 7 23 22 17 12 5 8 4 4 7 2 2 5 5 4
3 2 3 3 3 5 8 9 10 12 13 14 13 13 11 5 6 13 21 17 14 3 6 6 10 6 7 6 18 26 25 17 10 5 9 11 7 5 6 5 2 1 1 3 2 3 6
4 3 3 2 2 4 6 8 10 12 14 15 12 12 10 3 5 11 10 1 4 7 17 6 2 6 4 9 17 22 27 7 9 9 5 7 9 7 6 6 5 4 3 4 4 2 4
6 4 3 3 2 4 5 7 8 10 14 13 11 12 10 4 9 5 12 5 3 7 7 9 5 5 8 6 7 24 27 8 8 5 3 6 9 2 8 7 4 3 3 3 5 5 4
7 6 4 3 3 4 5 7 9 11 12 13 11 11 9 6 2 6 6 6 11 7 6 3 3 3 2 13 5 10 9 4 7 10 9 6 2 4 4 7 8 2 3 2 5 4 2
9 8 6 4 4 4 5 7 8 11 11 11 10 9 8 2 1 4 3 7 8 2 4 4 5 5 5 2 4 13 9 1 5 4 5 7 3 5 6 7 3 3 2 5 8 6 1
11 9 8 6 4 4 5 7 8 11 11 9 6 7 6 2 5 3 2 7 3 2 2 1 3 2 7 6 2 9 8 7 5 4 3 1 3 6 5 4 1 5 6 9 8 5 3
12 11 10 7 6 4 5 6 8 10 11 10 3 5 3 4 6 4 7 8 0 3 5 2 2 2 4 6 5 7 7 8 2 5 8 3 0 4 1 3 1 4 4 5 3 3 2
14 13 12 9 8 5 5 5 9 11 11 9 1 4 7 6 1 6 10 2 2 4 4 4 3 3 4 4 4 5 5 7 4 3 5 4 2 3 3 4 4 7 5 4 5 3 4
16 14 13 11 9 7 5 5 8 11 11 8 2 5 4 8 3 10 4 3 4 4 3 2 3 5 3 2 3 3 2 3 5 4 3 3 1 4 5 2 2 3 2 4 4 2 6
19 15 14 13 10 8 4 6 9 12 10 6 5 6 3 8 7 12 4 1 3 3 5 7 3 4 2 2 4 3 2 2 1 2 5 3 3 3 4 3 1 3 3 4 2 3 3
22 17 16 14 11 8 5 4 9 11 10 3 3 4 3 3 12 5 3 4 2 3 4 2 4 3 6 5 4 3 4 2 3 3 2 4 2 1 2 1 7 4 1 3 2 1 5
26 20 18 16 13 9 6 4 7 9 7 3 1 2 3 9 3 4 3 4 3 2 3 3 4 4 4 6 5 4 6 2 2 2 3 4 3 2 1 4 0 1 2 5 3 3 4
26 20 19 17 14 11 10 3 5 5 4 3 3 1 4 10 2 1 3 5 4 3 2 2 4 4 5 5 4 4 7 3 4 4 5 3 4 2 1 2 4 3 4 4 4 4 2
28 24 21 18 15 12 9 6 5 3 3 1 1 1 1 4 3 2 1 1 1 4 4 3 3 2 2 5 4 3 5 3 3 4 6 5 0 2 3 4 1 2 3 4 5 3 5
30 26 24 22 19 14 11 6 4 1 1 3 1 1 1 3 1 6 5 5 4 2 3 4 4 4 4 3 2 5 4 4 3 1 5 3 3 6 6 4 4 4 4 5 5 3 3
32 28 27 26 21 17 13 9 7 5 5 4 2 2 1 2 2 2 3 5 5 5 2 3 1 4 7 4 2 5 4 4 1 1 3 3 5 3 1 1 2 4 5 9 8 5 6
34 30 30 27 23 19 16 12 9 7 7 4 3 3 1 1 2 4 1 6 9 4 7 4 4 5 5 7 7 9 7 4 5 3 3 3 2 2 4 0 3 4 7 7 4 3 8
39 33 33 29 24 21 17 14 10 9 12 4 3 3 3 4 3 3 4 5 8 10 0 3 7 5 3 2 5 3 5 6 5 7 3 3 5 3 5 4 3 8 10 14 5 4 8
40 37 34 29 25 22 20 15 12 10 15 7 5 5 3 3 5 5 5 3 4 4 6 2 4 5 4 14 10 7 8 8 9 6 2 5 5 3 3 3 2 5 2 2 7 6 11
40 38 34 31 28 23 20 16 13 11 15 14 8 4 3 2 3 4 7 5 7 4 3 4 3 2 19 4 4 4 3 4 2 4 3 2 5 2 4 4 6 4 6 8 8 8 13
41 39 35 32 27 24 19 16 12 11 17 16 11 10 2 4 6 6 4 4 4 3 3 3 5 18 1 2 3 5 5 4 3 0 3 4 5 3 3 4 6 6 3 3 4 6 10
43 42 38 30 27 23 18 14 11 10 14 14 7 12 3 3 1 2 4 6 5 3 4 5 6 2 2 2 2 3 4 1 5 7 6 3 1 5 4 4 9 4 6 4 6 7 6
39 41 37 30 26 21 17 14 10 12 11 12 5 11 3 3 2 3 2 4 3 3 5 6 5 1 2 3 4 4 3 5 2 3 6 8 9 4 3 2 9 7 5 8 6 3 4
38 40 34 27 25 19 16 13 12 10 10 11 4 8 7 8 3 3 6 4 2 1 5 5 1 4 5 3 1 3 3 2 2 3 1 3 5 5 9 6 2 15 2 3 1 5 4
Wind_Direction
22 27 27 22 28 21 21 16 17 16 13 11 10 14 18 14 22 48 62 62 85 93 102 113 112 98 42 45 8 340 346 8 28 93 99 112 94 111 109 119 117 116 351 42 20 25 78
25 25 21 18 23 24 20 20 19 16 14 12 13 15 20 17 32 64 76 80 92 97 97 99 85 74 81 59 344 360 6 23 39 70 67 70 117 142 98 86 75 135 77 54 27 59 49
10 18 22 18 16 21 15 17 19 18 12 14 14 16 23 22 51 72 107 103 108 107 96 85 344 38 56 23 2 9 15 33 33 73 76 62 63 74 57 90 356 43 74 59 26 351 64
3 11 18 9 4 16 18 11 14 16 13 10 14 15 20 31 65 87 120 119 111 98 104 76 43 72 95 2 11 15 16 51 75 77 76 59 79 76 40 324 30 39 51 29 18 4 19
343 353 5 19 9 4 11 13 11 10 10 8 10 15 19 38 89 91 115 111 87 86 84 78 33 80 12 357 360 10 17 2 46 71 61 67 66 73 10 63 43 14 75 13 336 32 355
309 331 346 342 2 13 2 4 8 7 5 4 3 11 19 51 106 111 108 102 80 82 35 55 39 50 360 324 357 7 14 33 47 30 32 32 49 65 20 51 125 285 5 338 297 344 54
285 292 316 316 344 355 358 2 4 3 359 1 5 5 11 67 44 163 154 183 22 14 35 79 148 103 355 315 10 6 1 11 28 47 74 18 71 84 74 63 135 133 132 213 261 190 114
271 271 287 293 314 343 350 353 2 1 357 359 2 2 358 158 36 159 210 83 134 152 82 33 58 51 40 16 18 354 14 65 39 71 72 53 67 109 95 51 55 91 122 277 291 327 300
262 259 271 271 275 315 342 347 352 354 4 355 0 7 7 160 44 86 98 124 136 131 89 26 55 26 1 52 34 337 18 56 75 61 55 95 113 125 95 48 21 337 142 326 252 290 268
258 249 259 266 269 300 326 341 348 351 359 359 352 10 27 116 135 95 66 135 142 96 94 345 350 8 352 96 62 17 21 41 41 124 118 85 351 80 63 43 51 357 30 331 306 349 280
250 250 249 253 256 283 316 333 343 344 350 6 359 359 36 41 121 80 145 161 174 335 353 15 44 19 14 81 295 346 354 28 71 39 117 163 86 65 59 332 169 236 320 281 279 277 30
248 249 248 249 246 260 294 321 337 337 344 356 46 33 92 36 57 98 132 156 268 49 249 103 63 31 63 19 28 343 15 31 58 51 38 75 97 68 191 289 230 311 305 324 76 107 24
249 248 245 249 248 244 281 319 328 333 338 349 127 94 71 64 77 125 133 96 27 178 13 168 135 102 90 26 55 36 40 34 45 84 25 347 42 113 31 4 343 19 32 2 4 2 235
246 243 239 241 250 252 266 311 323 323 333 343 145 149 96 30 156 153 140 61 232 106 189 119 100 89 91 64 45 23 51 48 14 43 78 70 235 26 350 101 264 341 80 139 242 270 281
243 236 235 236 237 249 271 314 323 319 327 325 163 157 101 348 167 164 83 134 254 176 146 144 70 111 144 179 125 99 58 125 13 31 131 108 276 346 58 47 25 343 73 170 146 246 314
237 230 230 230 233 239 250 303 314 315 327 259 213 145 64 62 145 148 89 236 169 119 114 113 160 168 168 184 149 121 179 232 160 51 141 204 26 275 121 49 37 98 155 113 38 338 284
231 232 223 222 224 226 253 257 304 316 335 191 212 44 27 153 140 60 194 196 165 132 126 149 160 128 158 161 147 170 179 314 186 119 129 124 101 275 120 25 132 51 23 49 117 149 212
227 219 214 217 221 222 237 246 308 332 349 231 124 299 30 162 58 48 167 166 134 146 97 105 99 112 157 157 140 163 188 201 167 152 159 179 146 202 17 37 52 83 162 129 129 254 215
231 213 212 213 215 223 227 233 264 340 349 165 183 218 30 181 218 185 186 85 122 147 151 136 118 124 128 150 118 149 144 99 149 144 164 189 224 31 328 345 29 159 189 128 101 87 216
224 208 208 215 214 214 217 221 232 232 221 149 104 297 24 60 33 143 158 189 167 23 98 97 122 91 105 114 43 168 139 159 114 111 116 101 128 173 196 194 123 174 185 180 147 140 199
225 214 207 209 210 212 202 219 221 200 183 167 63 229 65 233 215 165 138 144 144 170 78 137 101 203 159 121 101 178 143 131 82 22 63 113 198 172 263 113 110 209 191 183 200 197 182
233 219 206 203 208 209 199 215 209 177 175 179 160 155 22 117 133 119 247 215 169 154 147 207 192 150 172 156 186 188 133 186 189 92 91 3 188 97 312 71 189 258 231 209 216 208 266
229 216 205 203 204 210 203 208 198 188 187 150 149 127 122 165 151 138 217 187 186 131 243 42 152 118 142 163 99 79 83 80 125 142 129 100 132 92 263 3 355 298 214 190 191 204 160
226 208 205 204 204 201 203 201 198 197 202 190 170 139 135 226 180 208 163 131 151 155 142 81 101 111 127 120 105 60 56 69 66 30 87 125 96 81 205 19 331 250 200 206 184 215 217
223 213 206 201 197 196 202 201 203 203 211 208 183 170 162 187 156 167 150 115 83 57 85 96 54 119 159 84 78 58 3 23 31 45 37 60 115 93 148 197 291 322 201 171 168 260 202
228 214 206 199 197 195 195 199 203 211 204 202 205 198 145 127 223 110 134 170 145 120 78 84 33 141 55 97 110 165 202 188 236 138 89 73 73 118 125 164 226 239 212 175 126 290 194
223 217 205 196 192 190 191 191 182 198 197 191 208 191 156 130 193 137 166 173 136 117 107 126 146 198 25 122 132 178 230 151 185 181 169 140 71 196 190 231 286 215 153 140 99 239 167
226 205 195 187 190 184 184 175 186 187 189 192 190 187 191 101 55 7 18 135 113 152 150 149 104 216 122 179 180 201 172 210 161 171 177 167 161 189 96 127 275 144 78 170 217 354 140
207 190 181 186 179 173 172 170 185 180 198 189 157 173 147 78 108 79 79 71 32 74 124 181 122 151 163 141 204 111 176 153 169 243 347 228 193 177 190 212 237 202 125 268 152 154 214
Height
817 816 816 815 813 812 811 810 808 806 803 801 799 796 793 790 787 785 782 779 779 780 781 783 784 784 784 791 798 793 787 784 783 783 783 785 788 791 797 798 797 802 803 803 807 809 823
816 816 816 815 813 812 811 809 808 807 804 802 799 797 795 791 789 787 786 783 783 784 785 786 786 785 785 803 799 793 787 784 783 784 785 786 788 789 794 798 800 802 806 812 812 815 825
817 816 816 815 813 812 812 810 808 806 805 802 800 798 795 793 791 789 789 787 787 787 788 788 786 786 790 804 798 794 787 785 785 785 786 788 788 791 794 801 802 802 807 817 822 822 830
817 816 816 816 815 813 811 811 809 807 804 803 800 799 797 795 793 791 791 791 789 789 789 789 788 787 801 801 798 793 789 787 786 787 789 790 791 796 805 806 813 820 820 831 830 828 830
816 816 815 814 814 814 812 811 810 809 805 803 800 799 798 797 795 793 793 793 792 791 790 790 790 791 806 801 797 796 793 791 790 790 792 793 797 815 816 821 836 843 843 839 837 840 835
816 815 815 815 814 813 813 812 810 809 807 804 801 798 797 797 797 796 795 795 794 792 792 792 795 801 808 812 803 798 795 794 793 793 798 806 822 835 838 841 855 858 850 850 845 842 849
815 814 814 813 813 813 812 811 811 810 809 806 801 799 798 797 796 797 796 795 798 803 802 811 814 815 814 810 807 802 798 797 799 806 820 827 837 851 853 848 861 867 874 872 851 841 856
815 814 813 813 813 812 812 811 810 808 808 805 802 799 797 796 795 795 795 797 800 804 817 814 814 816 816 813 815 809 804 809 818 824 826 839 848 846 846 849 848 850 876 864 848 842 844
814 814 812 812 811 812 812 811 811 809 806 807 803 800 797 797 796 796 798 800 800 802 815 819 819 819 820 818 825 824 819 822 829 833 839 842 845 842 845 854 851 853 871 856 863 848 847
812 812 812 811 810 811 811 810 809 808 806 805 805 801 798 798 800 798 801 803 802 803 817 826 823 823 822 820 827 826 825 826 831 837 841 847 845 844 849 850 856 854 850 851 850 858 864
810 810 809 809 809 809 810 809 809 807 805 801 803 803 800 798 800 800 803 803 805 805 812 827 825 824 825 828 832 833 830 827 837 841 839 849 847 848 853 853 853 855 850 850 848 856 863
808 809 808 808 806 807 808 809 808 807 805 802 800 803 802 801 801 802 802 805 807 809 818 826 826 829 831 835 837 837 837 834 839 842 844 849 847 850 850 849 849 851 851 850 857 870 902
804 806 807 807 805 804 806 805 807 806 804 801 800 801 802 801 804 804 804 809 812 809 826 826 829 829 837 841 843 846 851 857 857 853 865 855 852 855 854 855 852 859 866 878 874 879 874
800 802 803 804 805 804 804 804 803 805 804 801 800 801 802 802 803 804 807 815 801 813 822 828 829 834 841 844 850 853 855 862 859 862 873 870 861 859 858 859 863 863 863 898 922 895 875
796 798 801 802 802 803 803 803 803 804 803 801 800 800 801 802 802 805 813 815 798 812 819 826 831 838 846 846 852 859 867 866 864 867 884 889 869 862 860 863 864 865 875 885 908 892 885
791 794 796 799 800 801 800 801 802 803 802 800 800 799 801 801 802 806 814 803 820 818 822 824 820 835 848 849 850 857 864 865 863 865 870 884 898 865 862 866 869 873 883 891 903 928 899
785 789 793 795 796 797 799 797 801 802 800 801 800 802 801 802 804 809 813 816 820 818 819 826 833 840 844 850 854 859 865 868 865 867 870 879 891 873 865 882 883 880 909 913 919 922 923
780 784 788 790 792 794 796 795 799 799 798 799 799 804 802 802 808 822 821 818 816 822 822 826 832 837 846 851 855 858 862 862 866 867 876 877 901 898 888 895 892 896 920 934 916 921 927
774 779 783 785 788 792 793 793 796 796 797 797 799 801 801 802 803 819 820 820 818 819 821 827 833 832 840 849 869 855 861 863 864 867 875 877 892 914 890 904 891 901 912 925 942 954 943
766 773 778 780 783 787 791 789 793 794 794 795 801 798 801 804 810 812 818 818 822 821 823 826 835 838 845 852 859 870 863 863 865 866 865 876 920 897 894 886 901 903 900 906 919 945 945
761 767 772 774 779 782 786 788 790 791 791 794 800 799 803 798 805 810 810 813 819 822 824 828 835 836 851 875 858 857 860 867 868 870 881 885 898 900 907 911 904 904 894 902 908 918 911
756 761 766 770 773 777 781 783 786 788 789 792 797 800 808 811 810 810 816 817 811 820 825 827 836 836 849 858 851 862 867 873 871 879 892 905 905 917 917 909 907 914 905 905 907 916 920
753 755 761 765 769 773 777 780 783 785 787 788 794 794 795 804 808 811 806 805 807 816 825 826 833 842 849 845 853 859 865 870 875 879 907 919 919 929 926 916 922 904 895 887 895 912 909
750 751 756 759 765 771 774 777 780 781 784 785 789 790 799 795 799 799 803 805 810 815 826 833 834 842 855 853 856 863 871 879 885 901 893 919 928 947 940 940 922 869 903 891 882 893 896
744 746 753 755 762 766 772 773 775 778 782 782 785 789 791 796 795 802 805 813 820 827 829 830 837 840 847 852 867 877 875 876 884 893 899 904 923 943 923 945 888 879 880 885 881 862 868
738 742 749 753 758 762 767 769 773 775 778 778 782 785 786 793 792 792 809 812 822 831 834 839 843 845 848 850 858 865 859 860 881 886 896 902 914 912 953 923 888 854 875 890 887 876 853
733 735 743 750 754 758 764 767 771 774 774 775 779 781 783 789 797 797 801 808 811 821 830 838 845 848 849 855 858 863 866 877 868 870 885 892 917 900 913 918 883 866 873 888 880 845 841
726 729 736 745 751 757 762 764 770 773 771 773 778 779 781 789 800 801 801 803 809 811 818 832 841 847 852 852 844 845 866 869 869 863 867 865 882 897 927 930 867 866 875 859 838 846 846
720 727 732 742 749 754 759 764 769 768 769 773 776 778 779 785 802 803 805 805 806 806 812 822 822 824 826 836 843 851 849 871 858 843 870 854 846 849 857 846 859 851 843 843 846 840 846